TimeCDT,TemperatureF,Dew PointF,Humidity,Sea Level PressureIn,VisibilityMPH,Wind Direction,Wind SpeedMPH,Gust SpeedMPH,PrecipitationIn,Events,Conditions,WindDirDegrees,DateUTC
12:10 AM,64.4,64.4,100,29.84,0.8,Calm,Calm,-,N/A,,Clear,0,2013-09-26 05:10:00
12:14 AM,64.4,64.4,100,29.84,2.0,Calm,Calm,-,N/A,,Clear,0,2013-09-26 05:14:00
12:21 AM,64.4,64.4,100,29.84,6.0,Calm,Calm,-,N/A,,Clear,0,2013-09-26 05:21:00
12:32 AM,64.4,64.4,100,29.83,1.8,Calm,Calm,-,N/A,,Clear,0,2013-09-26 05:32:00
12:50 AM,64.4,64.4,100,29.84,3.0,Calm,Calm,-,N/A,,Clear,0,2013-09-26 05:50:00
12:53 AM,64.9,64.9,100,29.82,1.5,Calm,Calm,-,N/A,,Clear,0,2013-09-26 05:53:00
1:04 AM,66.2,64.4,94,29.84,3.0,Calm,Calm,-,N/A,,Clear,0,2013-09-26 06:04:00
1:53 AM,66.0,64.9,96,29.83,4.0,Calm,Calm,-,N/A,,Clear,0,2013-09-26 06:53:00
2:49 AM,64.4,64.4,100,29.84,2.5,Calm,Calm,-,N/A,,Clear,0,2013-09-26 07:49:00
2:53 AM,64.9,64.9,100,29.83,2.5,NW,3.5,-,N/A,,Clear,320,2013-09-26 07:53:00
3:21 AM,64.4,64.4,100,29.84,1.2,Calm,Calm,-,N/A,,Scattered Clouds,0,2013-09-26 08:21:00
3:28 AM,64.4,64.4,100,29.84,1.0,Calm,Calm,-,N/A,,Mist,0,2013-09-26 08:28:00
3:35 AM,64.4,64.4,100,29.84,0.8,Calm,Calm,-,N/A,,Mist,0,2013-09-26 08:35:00
3:46 AM,64.4,64.4,100,29.84,0.5,Calm,Calm,-,N/A,Fog,Fog,0,2013-09-26 08:46:00
3:53 AM,64.9,64.0,97,29.83,0.5,Calm,Calm,-,N/A,Fog,Fog,0,2013-09-26 08:53:00
4:11 AM,64.4,64.4,100,29.85,0.8,Calm,Calm,-,N/A,,Mist,0,2013-09-26 09:11:00
4:28 AM,64.4,64.4,100,29.85,0.5,Calm,Calm,-,N/A,Fog,Fog,0,2013-09-26 09:28:00
4:35 AM,64.4,64.4,100,29.86,1.0,Calm,Calm,-,N/A,,Mist,0,2013-09-26 09:35:00
4:39 AM,64.4,64.4,100,29.86,2.0,Calm,Calm,-,N/A,,Scattered Clouds,0,2013-09-26 09:39:00
4:53 AM,64.0,63.0,96,29.85,2.0,Calm,Calm,-,N/A,,Partly Cloudy,0,2013-09-26 09:53:00
5:05 AM,64.4,62.6,94,29.87,3.0,Calm,Calm,-,N/A,,Clear,0,2013-09-26 10:05:00
5:18 AM,64.4,64.4,100,29.87,2.0,Calm,Calm,-,N/A,,Clear,0,2013-09-26 10:18:00
5:30 AM,64.4,64.4,100,29.87,3.0,Calm,Calm,-,N/A,,Clear,0,2013-09-26 10:30:00
5:46 AM,64.4,62.6,94,29.88,1.8,Calm,Calm,-,N/A,,Partly Cloudy,0,2013-09-26 10:46:00
5:53 AM,64.0,63.0,96,29.87,0.8,Calm,Calm,-,N/A,,Mist,0,2013-09-26 10:53:00
5:58 AM,64.4,62.6,94,29.88,1.0,Calm,Calm,-,N/A,,Clear,0,2013-09-26 10:58:00
6:06 AM,64.4,62.6,94,29.89,1.0,Calm,Calm,-,N/A,,Mist,0,2013-09-26 11:06:00
6:14 AM,64.4,64.4,100,29.89,1.2,Calm,Calm,-,N/A,,Partly Cloudy,0,2013-09-26 11:14:00
6:24 AM,64.4,64.4,100,29.90,1.0,Calm,Calm,-,N/A,,Mist,0,2013-09-26 11:24:00
6:29 AM,64.4,62.6,94,29.90,2.0,Calm,Calm,-,N/A,,Partly Cloudy,0,2013-09-26 11:29:00
6:37 AM,64.4,62.6,94,29.90,3.0,Calm,Calm,-,N/A,,Clear,0,2013-09-26 11:37:00
6:45 AM,64.4,62.6,94,29.90,2.5,Calm,Calm,-,N/A,,Clear,0,2013-09-26 11:45:00
6:53 AM,64.0,63.0,96,29.90,1.2,Calm,Calm,-,N/A,,Clear,0,2013-09-26 11:53:00
7:06 AM,64.4,64.4,100,29.91,3.0,Calm,Calm,-,N/A,,Clear,0,2013-09-26 12:06:00
7:53 AM,66.0,64.9,96,29.92,-9999.0,North,-9999.0,-,N/A,,Unknown,0,2013-09-26 12:53:00
8:53 AM,-9999,-9999,N/A,29.94,-9999.0,North,-9999.0,-,N/A,,Unknown,0,2013-09-26 13:53:00
9:53 AM,-9999,-9999,N/A,29.95,-9999.0,North,-9999.0,-,N/A,,Unknown,0,2013-09-26 14:53:00
10:53 AM,-9999,-9999,N/A,29.95,-9999.0,North,-9999.0,-,N/A,,Unknown,0,2013-09-26 15:53:00
11:53 AM,81.0,66.9,62,29.94,-9999.0,Variable,3.5,-,N/A,,Unknown,0,2013-09-26 16:53:00
12:53 PM,82.9,66.0,56,29.93,10.0,East,6.9,-,N/A,,Partly Cloudy,80,2013-09-26 17:53:00
1:53 PM,82.9,64.0,53,29.91,10.0,ENE,4.6,-,N/A,,Partly Cloudy,60,2013-09-26 18:53:00
2:53 PM,87.1,64.9,48,29.90,10.0,East,6.9,-,N/A,,Clear,80,2013-09-26 19:53:00
3:53 PM,87.1,64.0,46,29.90,10.0,NE,6.9,-,N/A,,Partly Cloudy,40,2013-09-26 20:53:00
4:53 PM,86.0,63.0,46,29.90,10.0,NE,5.8,-,N/A,,Clear,50,2013-09-26 21:53:00
5:53 PM,84.0,63.0,49,29.90,10.0,NE,8.1,-,N/A,,Clear,50,2013-09-26 22:53:00
6:53 PM,79.0,64.9,62,29.91,10.0,ENE,5.8,-,N/A,,Clear,60,2013-09-26 23:53:00
7:53 PM,75.0,64.9,71,29.93,10.0,ENE,5.8,-,N/A,,Clear,70,2013-09-27 00:53:00
8:53 PM,75.0,64.9,71,29.95,10.0,East,3.5,-,N/A,,Scattered Clouds,100,2013-09-27 01:53:00
9:53 PM,72.0,64.9,78,29.97,10.0,ESE,4.6,-,N/A,,Clear,120,2013-09-27 02:53:00
10:53 PM,69.1,64.9,87,29.98,-9999.0,Calm,Calm,-,N/A,,Unknown,0,2013-09-27 03:53:00
11:53 PM,71.1,64.9,81,29.97,10.0,ESE,5.8,-,N/A,,Clear,120,2013-09-27 04:53:00